User: anonymous   Login
Location: Fontevrault
(47.1823°N, 0.0493°E)
Time: 23:56:52
(UTC+00:00)
Language:

Cosmos 1758 - Orbit

View from above orbital plane
View from above orbital plane
View from above satellite
View from above satellite

Ground track
Ground track

The orbit data is extracted from the following two-line orbital elements,

1 16791U 86046A   21271.46747460  .00000365  00000-0  23357-4 0  9997
2 16791  82.4686 306.7995 0017058 157.7976 202.3993 15.05415324920663
Epoch (UTC): 28 September 2021 11:13:09
Eccentricity: 0.0017058
inclination: 82.4686°
perigee height: 538 km
apogee height: 562 km
right ascension of ascending node: 306.7995°
argument of perigee: 157.7976°
revolutions per day: 15.05415324
mean anomaly at epoch: 202.3993°
orbit number at epoch: 92066

The dashed part of the orbit path shows where the satellite is in the earth's shadow,  

DLR